Location: Guferjoch
(46.7462°N, 8.4506°E)
Time: 11:43:20
(UTC+00:00)

Cosmos 1656 - Pass Details

Date: 14 July 2020
Orbit: 800 x 848 km, 71.1° (Epoch: 06 August)

Event Time Altitude Azimuth Distance (km) Brightness Sun altitude
Rises 00:44:32 0° 334° (NNW) 3,318 7.5 -19.7°
Reaches altitude 10° 00:46:57 10° 336° (NNW) 2,384 6.7 -19.6°
Maximum altitude 00:52:24 78° 62° (ENE) 826 3.7 -19.3°
Enters shadow 00:56:29 18° 148° (SSE) 1,872 5.2 -19.0°
